History for KIDP

Independence, KS

Daily Weekly Monthly
Daily Summary for Monday, October 22, 2018
  Actual: Average: Record:
Temperature
Mean Temperature: 52 °F / 10 °C - :  
Max Temperature: 61 °F / 16 °C 67 °F / 19 °C 82 °F / 27 °C (2003)
Min Temperature: 43 °F / 6 °C 45 °F / 7 °C 30 °F / -1 °C (2006)
Degree Days
Heating Degree Days: 14    
Growing Degree Days 2 (Base 50)    
Moisture
Dew Point 41 °F / 5 °C    
Average Humidity 77    
Maximum Humidity 90    
Minimum Humidity 54    
Precipitation
Precipitation 0.00 in / 0.0 cm - - ()
Sea Level Pressure
Sea Level Pressure 30.17 in / 1021.46 hPa   
Wind
Wind Speed 8 mph / 13 km/h ()  
Max Wind Speed 16 mph / 26 km/h   
Max Gust Speed 18 mph / 30 km/h   
Visibility 10.0 miles / 16.1 kilometers   
Events     
Averages and records for this station are not official NWS values.
Key: T is trace of precipitation, MM is missing value
Source: Averaged Metar Reports
Seasonal Weather Averages

Graphs

Observations

History Graphs Observations

Obs Go Here...

Features

Weather Apps

WunderRadio

Weather Underground Apps
Check out our wide variety of mobile and setup applications.

Weather Underground Applications

Top of Page

© Copyright 2018
The Weather Company, LLC
Time(CDT)TemperatureDew PointHumidity Sea Level Pressure Visibility Wind DirectionWind SpeedGust SpeedPrecipitationEvents Conditions
12:15 AM 49.3 °F / 9.6 °C 39.7 °F / 4.3 °C 70% 30.17 in / 1021.6 hPa 10.0 miles / 16.1 kilometers South 9.2 mph / 14.8 km/h - N/A   Clear
12:35 AM 48.4 °F / 9.1 °C 39.4 °F / 4.1 °C 71% 30.18 in / 1021.9 hPa 10.0 miles / 16.1 kilometers South 9.2 mph / 14.8 km/h - N/A   Clear
12:55 AM 47.8 °F / 8.8 °C 39.6 °F / 4.2 °C 73% 30.17 in / 1021.6 hPa 10.0 miles / 16.1 kilometers South 9.2 mph / 14.8 km/h - N/A   Clear
1:15 AM 46.8 °F / 8.2 °C 39.4 °F / 4.1 °C 75% 30.17 in / 1021.6 hPa 10.0 miles / 16.1 kilometers South 9.2 mph / 14.8 km/h - N/A   Clear
1:35 AM 46.4 °F / 8.0 °C 39.0 °F / 3.9 °C 75% 30.18 in / 1021.9 hPa 10.0 miles / 16.1 kilometers South 5.8 mph / 9.3 km/h - N/A   Clear
1:50 AM 46.0 °F / 7.8 °C 38.8 °F / 3.8 °C 76% 30.17 in / 1021.6 hPa 10.0 miles / 16.1 kilometers South 6.9 mph / 11.1 km/h - N/A   Clear
2:15 AM 45.5 °F / 7.5 °C 39.2 °F / 4.0 °C 79% 30.17 in / 1021.6 hPa 10.0 miles / 16.1 kilometers South 6.9 mph / 11.1 km/h - N/A   Clear
2:35 AM 45.7 °F / 7.6 °C 39.6 °F / 4.2 °C 79% 30.17 in / 1021.6 hPa 10.0 miles / 16.1 kilometers South 8.1 mph / 13.0 km/h - N/A   Clear
2:55 AM 45.5 °F / 7.5 °C 39.7 °F / 4.3 °C 80% 30.16 in / 1021.2 hPa 10.0 miles / 16.1 kilometers South 6.9 mph / 11.1 km/h - N/A   Clear
3:15 AM 46.0 °F / 7.8 °C 40.1 °F / 4.5 °C 80% 30.16 in / 1021.2 hPa 10.0 miles / 16.1 kilometers South 8.1 mph / 13.0 km/h - N/A   Clear
3:35 AM 45.1 °F / 7.3 °C 39.9 °F / 4.4 °C 82% 30.16 in / 1021.2 hPa 10.0 miles / 16.1 kilometers South 8.1 mph / 13.0 km/h - N/A   Clear
3:55 AM 45.0 °F / 7.2 °C 39.9 °F / 4.4 °C 82% 30.16 in / 1021.2 hPa 10.0 miles / 16.1 kilometers South 9.2 mph / 14.8 km/h - N/A   Clear
4:15 AM 45.3 °F / 7.4 °C 40.1 °F / 4.5 °C 82% 30.15 in / 1020.9 hPa 10.0 miles / 16.1 kilometers South 10.4 mph / 16.7 km/h - N/A   Clear
4:35 AM 45.7 °F / 7.6 °C 40.3 °F / 4.6 °C 81% 30.15 in / 1020.9 hPa 10.0 miles / 16.1 kilometers South 9.2 mph / 14.8 km/h - N/A   Clear
4:55 AM 45.3 °F / 7.4 °C 40.3 °F / 4.6 °C 83% 30.15 in / 1020.9 hPa 10.0 miles / 16.1 kilometers South 8.1 mph / 13.0 km/h - N/A   Clear
5:15 AM 45.5 °F / 7.5 °C 40.6 °F / 4.8 °C 83% 30.15 in / 1020.9 hPa 10.0 miles / 16.1 kilometers South 9.2 mph / 14.8 km/h - N/A   Clear
5:35 AM 45.7 °F / 7.6 °C 40.6 °F / 4.8 °C 83% 30.15 in / 1020.9 hPa 10.0 miles / 16.1 kilometers South 9.2 mph / 14.8 km/h - N/A   Clear
5:55 AM 45.5 °F / 7.5 °C 40.8 °F / 4.9 °C 84% 30.16 in / 1021.2 hPa 10.0 miles / 16.1 kilometers South 9.2 mph / 14.8 km/h - N/A   Clear
6:15 AM 44.4 °F / 6.9 °C 40.5 °F / 4.7 °C 86% 30.16 in / 1021.2 hPa 10.0 miles / 16.1 kilometers South 8.1 mph / 13.0 km/h - N/A   Clear
6:35 AM 44.1 °F / 6.7 °C 40.5 °F / 4.7 °C 87% 30.16 in / 1021.2 hPa 10.0 miles / 16.1 kilometers South 6.9 mph / 11.1 km/h - N/A   Clear
6:55 AM 43.2 °F / 6.2 °C 39.9 °F / 4.4 °C 88% 30.16 in / 1021.2 hPa 10.0 miles / 16.1 kilometers SSE 4.6 mph / 7.4 km/h - N/A   Scattered Clouds
7:15 AM 43.5 °F / 6.4 °C 39.9 °F / 4.4 °C 87% 30.16 in / 1021.2 hPa 10.0 miles / 16.1 kilometers South 5.8 mph / 9.3 km/h - N/A   Scattered Clouds
7:35 AM 43.2 °F / 6.2 °C 40.3 °F / 4.6 °C 90% 30.16 in / 1021.2 hPa 10.0 miles / 16.1 kilometers SE 4.6 mph / 7.4 km/h - N/A   Clear
7:55 AM 43.7 °F / 6.5 °C 40.3 °F / 4.6 °C 88% 30.16 in / 1021.2 hPa 10.0 miles / 16.1 kilometers SSE 5.8 mph / 9.3 km/h - N/A   Clear
8:15 AM 45.1 °F / 7.3 °C 41.5 °F / 5.3 °C 87% 30.16 in / 1021.2 hPa 10.0 miles / 16.1 kilometers South 5.8 mph / 9.3 km/h - N/A   Clear
8:35 AM 47.5 °F / 8.6 °C 42.4 °F / 5.8 °C 83% 30.17 in / 1021.6 hPa 10.0 miles / 16.1 kilometers SSE 6.9 mph / 11.1 km/h - N/A   Clear
8:55 AM 49.5 °F / 9.7 °C 42.6 °F / 5.9 °C 77% 30.18 in / 1021.9 hPa 10.0 miles / 16.1 kilometers South 9.2 mph / 14.8 km/h - N/A   Clear
9:15 AM 51.4 °F / 10.8 °C 42.8 °F / 6.0 °C 72% 30.18 in / 1021.9 hPa 10.0 miles / 16.1 kilometers South 9.2 mph / 14.8 km/h - N/A   Clear
9:35 AM 54.0 °F / 12.2 °C 43.0 °F / 6.1 °C 66% 30.18 in / 1021.9 hPa 10.0 miles / 16.1 kilometers South 13.8 mph / 22.2 km/h 18.4 mph / 29.6 km/h N/A   Clear
9:55 AM 55.8 °F / 13.2 °C 43.7 °F / 6.5 °C 64% 30.18 in / 1021.9 hPa 10.0 miles / 16.1 kilometers South 12.7 mph / 20.4 km/h - N/A   Clear
10:15 AM 57.0 °F / 13.9 °C 43.5 °F / 6.4 °C 61% 30.18 in / 1021.9 hPa 10.0 miles / 16.1 kilometers South 16.1 mph / 25.9 km/h - N/A   Clear
10:35 AM 58.1 °F / 14.5 °C 43.5 °F / 6.4 °C 58% 30.18 in / 1021.9 hPa 10.0 miles / 16.1 kilometers South 15.0 mph / 24.1 km/h - N/A   Clear
10:55 AM 59.4 °F / 15.2 °C 44.1 °F / 6.7 °C 57% 30.18 in / 1021.9 hPa 10.0 miles / 16.1 kilometers South 15.0 mph / 24.1 km/h - N/A   Clear
11:15 AM 60.6 °F / 15.9 °C 44.2 °F / 6.8 °C 55% 30.18 in / 1021.9 hPa 10.0 miles / 16.1 kilometers South 15.0 mph / 24.1 km/h - N/A   Clear
11:35 AM 61.5 °F / 16.4 °C 44.8 °F / 7.1 °C 54% 30.18 in / 1021.9 hPa 10.0 miles / 16.1 kilometers South 16.1 mph / 25.9 km/h - N/A   Clear